DB0MAK-13 Weather Reports


Display with metric or nautical units.
time (UTC)temp
F
wind
direction
speed
MPH
gust
MPH
rain 1hr
in
rain 24hr
in
rain mn
in
humidity
%
barometer
mb
20220707043201 53 239 1.0 4.0 0.00 0.00 0.00 71 1022.1
20220707042804 53 0 0.0 3.0 0.00 0.00 0.00 72 1022.2
20220707042201 53 0 0.0 6.0 0.00 0.00 0.00 72 1022.2
20220707042104 53 0 0.0 6.0 0.00 0.00 0.00 72 1022.2
20220707041404 53 0 0.0 6.0 0.00 0.00 0.00 72 1022.2
20220707041201 53 197 1.0 6.0 0.00 0.00 0.00 71 1022.2
20220707040704 53 216 1.0 6.0 0.00 0.00 0.00 71 1022.2
20220707040201 53 193 3.0 4.0 0.00 0.00 0.00 71 1022.2
20220707040004 53 241 1.0 6.0 0.00 0.00 0.00 71 1022.2
20220707035304 53 204 1.0 6.0 0.00 0.00 0.00 70 1022.2
20220707035201 53 191 3.0 6.0 0.00 0.00 0.00 71 1022.2
20220707034604 53 204 1.0 4.0 0.00 0.00 0.00 70 1022.2
20220707034201 53 235 1.0 3.0 0.00 0.00 0.00 70 1022.2
20220707033904 53 0 0.0 0.0 0.00 0.00 0.00 70 1022.2
20220707033201 53 0 0.0 1.0 0.00 0.00 0.00 68 1022.5
20220707032504 53 0 0.0 1.0 0.00 0.00 0.00 68 1022.4
20220707032201 53 0 0.0 1.0 0.00 0.00 0.00 67 1022.4
20220707031804 53 0 0.0 3.0 0.00 0.00 0.00 67 1022.5
20220707031201 53 0 0.0 3.0 0.00 0.00 0.00 68 1022.2
20220707031104 53 221 1.0 3.0 0.00 0.00 0.00 68 1022.2
20220707030404 53 0 0.0 3.0 0.00 0.00 0.00 68 1022.2
20220707030201 53 0 0.0 3.0 0.00 0.00 0.00 69 1022.2
20220707025704 53 0 0.0 3.0 0.00 0.00 0.00 69 1022.2
20220707025201 53 0 0.0 3.0 0.00 0.00 0.00 70 1022.2
20220707025004 53 0 0.0 3.0 0.00 0.00 0.00 69 1022.4
20220707024304 53 0 0.0 3.0 0.00 0.00 0.00 69 1022.4
20220707024201 53 0 0.0 3.0 0.00 0.00 0.00 70 1022.4
20220707023604 53 0 0.0 3.0 0.00 0.00 0.00 69 1022.5
20220707023201 53 0 0.0 1.0 0.00 0.00 0.00 70 1022.5
20220707022904 53 0 0.0 3.0 0.00 0.00 0.00 70 1022.4
20220707022201 53 0 0.0 3.0 0.00 0.00 0.00 70 1022.6
20220707021504 53 0 0.0 3.0 0.00 0.00 0.00 71 1022.7
20220707021201 53 0 0.0 3.0 0.00 0.00 0.00 71 1022.6
20220707020804 52 0 0.0 3.0 0.00 0.00 0.00 70 1022.7
20220707020201 52 0 0.0 1.0 0.00 0.00 0.00 71 1022.7
20220707020104 52 0 0.0 1.0 0.00 0.00 0.00 71 1022.6
20220707015404 52 0 0.0 1.0 0.00 0.00 0.00 71 1022.7
20220707015201 52 0 0.0 1.0 0.00 0.00 0.00 71 1022.7
20220707014704 52 0 0.0 1.0 0.00 0.00 0.00 71 1022.7
20220707014201 52 0 0.0 1.0 0.00 0.00 0.00 71 1022.7
20220707014004 52 0 0.0 0.0 0.00 0.00 0.00 72 1022.7
20220707013304 52 0 0.0 1.0 0.00 0.00 0.00 72 1022.9
20220707013201 52 0 0.0 1.0 0.00 0.00 0.00 72 1022.9
20220707012604 51 0 0.0 0.0 0.00 0.00 0.00 73 1023.0
20220707012201 51 0 0.0 0.0 0.00 0.00 0.00 73 1023.0
20220707011904 51 0 0.0 0.0 0.00 0.00 0.00 73 1023.0
20220707011201 51 0 0.0 0.0 0.00 0.00 0.00 73 1023.1
20220707010504 51 0 0.0 0.0 0.00 0.00 0.00 73 1023.1
20220707010201 51 0 0.0 0.0 0.00 0.00 0.00 73 1023.1
20220707005804 51 0 0.0 0.0 0.00 0.00 0.00 73 1023.2
20220707005201 51 0 0.0 0.0 0.00 0.00 0.00 73 1023.2
20220707005103 51 0 0.0 0.0 0.00 0.00 0.00 73 1023.2
20220707004404 51 0 0.0 0.0 0.00 0.00 0.00 72 1023.2
20220707004201 51 0 0.0 0.0 0.00 0.00 0.00 73 1023.2
20220707003704 50 0 0.0 0.0 0.00 0.00 0.00 72 1023.2
20220707003201 50 0 0.0 0.0 0.00 0.00 0.00 73 1023.4
20220707003004 50 0 0.0 0.0 0.00 0.00 0.00 73 1023.4
20220707002304 50 0 0.0 0.0 0.00 0.00 0.00 72 1023.4
20220707002201 50 0 0.0 0.0 0.00 0.00 0.00 72 1023.5
20220707001604 50 0 0.0 0.0 0.00 0.00 0.00 72 1023.5
20220707001201 50 0 0.0 0.0 0.00 0.00 0.00 72 1023.5
20220707000904 50 0 0.0 0.0 0.00 0.00 0.00 72 1023.4
20220707000201 50 0 0.0 0.0 0.00 0.00 0.00 72 1023.4
20220706235504 51 0 0.0 0.0 0.00 0.00 0.00 72 1023.6
20220706235201 51 0 0.0 0.0 0.00 0.00 0.00 72 1023.6
20220706234804 51 0 0.0 0.0 0.00 0.00 0.00 72 1023.7
20220706234201 51 0 0.0 0.0 0.00 0.00 0.00 71 1023.7
20220706234103 51 0 0.0 0.0 0.00 0.00 0.00 71 1023.7
20220706233403 52 0 0.0 0.0 0.00 0.00 0.00 71 1023.7
20220706233201 52 0 0.0 0.0 0.00 0.00 0.00 70 1023.7
20220706232703 52 0 0.0 0.0 0.00 0.00 0.00 70 1023.7
20220706232201 52 0 0.0 0.0 0.00 0.00 0.00 70 1023.7
20220706232003 52 0 0.0 0.0 0.00 0.00 0.00 70 1023.7
20220706231303 52 0 0.0 0.0 0.00 0.00 0.00 70 1023.7
20220706231201 52 0 0.0 0.0 0.00 0.00 0.00 69 1023.7
20220706230603 53 0 0.0 0.0 0.00 0.00 0.00 68 1023.7
20220706230201 53 0 0.0 0.0 0.00 0.00 0.00 68 1023.7
20220706225903 53 0 0.0 0.0 0.00 0.00 0.00 67 1023.7
20220706225201 54 0 0.0 0.0 0.00 0.00 0.00 66 1023.9
20220706224503 54 0 0.0 3.0 0.00 0.00 0.00 66 1024.0
20220706224201 54 0 0.0 3.0 0.00 0.00 0.00 66 1024.0
20220706223804 54 0 0.0 3.0 0.00 0.00 0.00 66 1024.0
20220706223201 54 0 0.0 3.0 0.00 0.00 0.00 66 1023.9
20220706223103 54 0 0.0 3.0 0.00 0.00 0.00 66 1023.9
20220706222403 54 0 0.0 3.0 0.00 0.00 0.00 66 1023.7
20220706222201 54 0 0.0 3.0 0.00 0.00 0.00 66 1023.7
20220706221703 55 0 0.0 3.0 0.00 0.00 0.00 66 1023.7
20220706221200 55 0 0.0 3.0 0.00 0.00 0.00 65 1023.7
20220706221003 55 0 0.0 3.0 0.00 0.00 0.00 65 1023.9
20220706220303 55 0 0.0 3.0 0.00 0.00 0.00 65 1023.7
20220706220201 55 0 0.0 3.0 0.00 0.00 0.00 65 1023.7
20220706215603 55 324 1.0 3.0 0.00 0.00 0.00 65 1023.7
20220706215200 55 326 1.0 6.0 0.00 0.00 0.00 65 1023.7
20220706214903 55 323 1.0 6.0 0.00 0.00 0.00 65 1023.7
20220706214201 55 311 1.0 4.0 0.00 0.00 0.00 65 1023.7
20220706213503 56 319 1.0 6.0 0.00 0.00 0.00 64 1023.7
20220706213201 56 330 1.0 8.0 0.00 0.00 0.00 64 1024.7
20220706212803 56 335 1.0 8.0 0.00 0.00 0.00 65 1024.5
20220706212201 56 0 0.0 4.0 0.00 0.00 0.00 64 1024.5
20220706212104 56 0 0.0 4.0 0.00 0.00 0.00 64 1024.7
20220706211403 56 321 1.0 4.0 0.00 0.00 0.00 64 1024.5
20220706211201 56 321 1.0 4.0 0.00 0.00 0.00 64 1024.7
20220706210703 56 321 1.0 6.0 0.00 0.00 0.00 64 1024.5
20220706210201 57 321 1.0 6.0 0.00 0.00 0.00 64 1024.5
20220706210004 57 323 1.0 6.0 0.00 0.00 0.00 64 1024.5
20220706205303 57 0 0.0 4.0 0.00 0.00 0.00 63 1024.5
20220706205201 57 0 0.0 4.0 0.00 0.00 0.00 63 1024.5
20220706204603 57 0 0.0 4.0 0.00 0.00 0.00 63 1024.5
20220706204201 58 320 1.0 4.0 0.00 0.00 0.00 62 1024.5
20220706203903 58 323 1.0 4.0 0.00 0.00 0.00 62 1024.5
20220706203201 58 316 1.0 4.0 0.00 0.00 0.00 61 1024.5
20220706202503 58 319 1.0 6.0 0.00 0.00 0.00 61 1024.5
20220706202201 59 330 1.0 6.0 0.00 0.00 0.00 60 1024.5
20220706201803 59 317 3.0 6.0 0.00 0.00 0.00 60 1024.5
20220706201201 59 316 1.0 6.0 0.00 0.00 0.00 60 1024.5
20220706201103 59 321 1.0 8.0 0.00 0.00 0.00 60 1024.5
20220706200403 59 316 1.0 8.0 0.00 0.00 0.00 59 1024.5
20220706200201 59 326 3.0 8.0 0.00 0.00 0.00 59 1024.5
20220706195703 59 321 3.0 8.0 0.00 0.00 0.00 59 1024.5
20220706195201 59 316 3.0 6.0 0.00 0.00 0.00 59 1024.5
20220706195004 59 318 3.0 6.0 0.00 0.00 0.00 59 1024.4
20220706194303 60 314 1.0 8.0 0.00 0.00 0.00 59 1024.3
20220706194201 60 315 1.0 8.0 0.00 0.00 0.00 59 1024.3
20220706193603 60 328 1.0 8.0 0.00 0.00 0.00 58 1024.3
20220706193200 60 0 0.0 3.0 0.00 0.00 0.00 59 1024.2
20220706192903 60 0 0.0 3.0 0.00 0.00 0.00 58 1024.0
20220706192201 61 317 1.0 6.0 0.00 0.00 0.00 58 1024.0
20220706191503 61 317 1.0 6.0 0.00 0.00 0.00 57 1023.9
20220706191201 61 325 1.0 6.0 0.00 0.00 0.00 57 1023.9
20220706190803 62 0 0.0 4.0 0.00 0.00 0.00 56 1023.7
20220706190201 62 0 0.0 4.0 0.00 0.00 0.00 56 1023.7
20220706190103 62 325 1.0 4.0 0.00 0.00 0.00 56 1023.6
20220706185403 63 308 1.0 6.0 0.00 0.00 0.00 55 1023.6
20220706185201 63 312 1.0 6.0 0.00 0.00 0.00 55 1023.6
20220706184703 63 322 1.0 6.0 0.00 0.00 0.00 55 1023.7
20220706184200 63 319 1.0 6.0 0.00 0.00 0.00 54 1023.6
20220706184003 63 321 1.0 6.0 0.00 0.00 0.00 54 1023.6
20220706183305 64 314 1.0 6.0 0.00 0.00 0.00 53 1023.6
20220706183200 64 315 1.0 8.0 0.00 0.00 0.00 53 1023.6
20220706182603 65 320 1.0 9.0 0.00 0.00 0.00 52 1023.5
20220706182200 65 327 3.0 11.0 0.00 0.00 0.00 51 1023.6
20220706181903 66 333 1.0 11.0 0.00 0.00 0.00 51 1023.5
20220706181201 67 313 1.0 9.0 0.00 0.00 0.00 46 1023.4
20220706180503 67 0 0.0 11.0 0.00 0.00 0.00 43 1023.4
20220706180201 67 300 1.0 11.0 0.00 0.00 0.00 42 1023.2
20220706175803 67 311 1.0 9.0 0.00 0.00 0.00 42 1023.2
20220706175200 68 0 0.0 4.0 0.00 0.00 0.00 41 1023.2
20220706175103 68 0 0.0 8.0 0.00 0.00 0.00 41 1023.2
20220706174403 68 0 0.0 9.0 0.00 0.00 0.00 42 1023.2
20220706174200 68 280 1.0 9.0 0.00 0.00 0.00 42 1023.1
20220706173200 68 270 1.0 8.0 0.00 0.00 0.00 41 1023.2
20220706173003 68 282 1.0 4.0 0.00 0.00 0.00 42 1023.2
20220706172304 68 0 0.0 9.0 0.00 0.00 0.00 43 1023.1
20220706172201 68 0 0.0 9.0 0.00 0.00 0.00 42 1023.2
20220706171603 68 0 0.0 8.0 0.00 0.00 0.00 42 1023.2
20220706171200 68 300 1.0 11.0 0.00 0.00 0.00 42 1023.2
20220706170903 68 300 3.0 11.0 0.00 0.00 0.00 41 1023.2
20220706170200 69 305 3.0 11.0 0.00 0.00 0.00 41 1023.1
20220706165503 69 289 1.0 8.0 0.00 0.00 0.00 43 1023.2
20220706165200 69 259 1.0 8.0 0.00 0.00 0.00 43 1023.2
20220706164803 70 294 1.0 11.0 0.00 0.00 0.00 42 1023.2
20220706164200 69 289 1.0 11.0 0.00 0.00 0.00 42 1023.2
20220706164103 69 290 1.0 11.0 0.00 0.00 0.00 41 1023.2
20220706163403 69 302 4.0 11.0 0.00 0.00 0.00 43 1023.2
20220706163201 70 288 1.0 8.0 0.00 0.00 0.00 43 1023.2
20220706162703 69 289 1.0 8.0 0.00 0.00 0.00 42 1023.2
20220706162200 69 0 0.0 9.0 0.00 0.00 0.00 42 1023.2
20220706162003 69 0 0.0 9.0 0.00 0.00 0.00 42 1023.4
20220706161303 69 0 0.0 8.0 0.00 0.00 0.00 42 1023.4
20220706161200 69 0 0.0 8.0 0.00 0.00 0.00 41 1023.5
20220706160603 70 301 3.0 8.0 0.00 0.00 0.00 40 1023.4
20220706160200 70 272 3.0 12.0 0.00 0.00 0.00 40 1023.2
20220706155903 70 297 1.0 12.0 0.00 0.00 0.00 40 1023.4
20220706155200 70 306 4.0 11.0 0.00 0.00 0.00 38 1023.4
20220706154503 71 262 4.0 14.0 0.00 0.00 0.00 38 1023.5
20220706154200 71 295 1.0 14.0 0.00 0.00 0.00 40 1023.4
20220706153803 71 260 4.0 14.0 0.00 0.00 0.00 39 1023.5
20220706153200 71 270 3.0 9.0 0.00 0.00 0.00 39 1023.6
20220706153103 71 277 3.0 9.0 0.00 0.00 0.00 39 1023.6
20220706152403 71 286 1.0 9.0 0.00 0.00 0.00 39 1023.5
20220706152200 71 283 1.0 9.0 0.00 0.00 0.00 39 1023.6
20220706151703 71 297 3.0 9.0 0.00 0.00 0.00 38 1023.6
20220706151200 72 277 1.0 12.0 0.00 0.00 0.00 38 1023.6
20220706151003 72 286 1.0 12.0 0.00 0.00 0.00 38 1023.6
20220706150304 71 307 1.0 14.0 0.00 0.00 0.00 37 1023.6
20220706150200 71 304 3.0 14.0 0.00 0.00 0.00 38 1023.7
20220706145603 71 281 3.0 11.0 0.00 0.00 0.00 38 1023.6
20220706145200 71 300 1.0 9.0 0.00 0.00 0.00 40 1023.6
20220706144903 70 307 1.0 9.0 0.00 0.00 0.00 39 1023.6
20220706144200 69 0 0.0 9.0 0.00 0.00 0.00 39 1023.7
20220706143503 71 280 1.0 12.0 0.00 0.00 0.00 40 1023.6
20220706143200 71 303 3.0 12.0 0.00 0.00 0.00 40 1023.6
20220706142803 70 277 3.0 8.0 0.00 0.00 0.00 41 1023.7
20220706142200 70 261 3.0 14.0 0.00 0.00 0.00 39 1023.7
20220706142103 70 261 4.0 14.0 0.00 0.00 0.00 39 1023.7
20220706141403 71 280 3.0 9.0 0.00 0.00 0.00 40 1023.7
20220706141200 71 292 3.0 8.0 0.00 0.00 0.00 40 1023.7
20220706140703 69 277 1.0 14.0 0.00 0.00 0.00 43 1023.9
20220706140200 70 274 1.0 14.0 0.00 0.00 0.00 42 1024.0
20220706140003 70 275 1.0 14.0 0.00 0.00 0.00 41 1024.0
20220706135304 71 283 1.0 8.0 0.00 0.00 0.00 41 1023.9
20220706135200 71 290 3.0 11.0 0.00 0.00 0.00 41 1023.9
20220706134603 71 285 3.0 17.0 0.00 0.00 0.00 41 1024.0
20220706134200 71 282 3.0 17.0 0.00 0.00 0.00 42 1023.9
20220706133903 70 263 4.0 17.0 0.00 0.00 0.00 45 1023.9
20220706133200 69 305 4.0 14.0 0.00 0.00 0.00 47 1023.7
20220706132503 69 255 4.0 11.0 0.00 0.00 0.00 45 1024.0
20220706132200 69 283 3.0 11.0 0.00 0.00 0.00 46 1023.9
20220706131803 69 291 1.0 6.0 0.00 0.00 0.00 48 1024.0
20220706131200 68 0 0.0 4.0 0.00 0.00 0.00 50 1024.0
20220706131103 67 0 0.0 4.0 0.00 0.00 0.00 52 1024.0
20220706130403 67 268 1.0 8.0 0.00 0.00 0.00 51 1024.2
20220706130200 67 0 0.0 8.0 0.00 0.00 0.00 51 1024.2
20220706125703 67 301 1.0 8.0 0.00 0.00 0.00 51 1024.2
20220706125200 67 301 1.0 8.0 0.00 0.00 0.00 50 1024.2
20220706125003 67 301 3.0 8.0 0.00 0.00 0.00 50 1024.0
20220706124303 68 301 1.0 11.0 0.00 0.00 0.00 50 1024.0
20220706124200 68 304 1.0 11.0 0.00 0.00 0.00 50 1024.2
20220706123603 68 308 3.0 9.0 0.00 0.00 0.00 48 1024.2
20220706123200 69 277 1.0 8.0 0.00 0.00 0.00 48 1024.2
20220706122903 69 292 1.0 14.0 0.00 0.00 0.00 47 1024.2
20220706122200 69 306 1.0 14.0 0.00 0.00 0.00 47 1024.2
20220706121503 68 304 1.0 12.0 0.00 0.00 0.00 49 1024.3
20220706121200 68 297 1.0 12.0 0.00 0.00 0.00 49 1024.3
20220706120803 69 310 4.0 12.0 0.00 0.00 0.00 48 1024.3
20220706120200 70 278 3.0 11.0 0.00 0.00 0.00 42 1024.3
20220706120103 70 272 3.0 11.0 0.00 0.00 0.00 42 1024.3
20220706115403 71 0 0.0 8.0 0.00 0.00 0.00 47 1024.3
20220706115200 70 248 3.0 8.0 0.00 0.00 0.00 48 1024.2
20220706114703 70 0 0.0 8.0 0.00 0.00 0.00 48 1024.4
20220706114200 69 277 3.0 11.0 0.00 0.00 0.00 49 1024.4
20220706114003 69 272 1.0 11.0 0.00 0.00 0.00 48 1024.3
20220706113303 68 275 3.0 11.0 0.00 0.00 0.00 49 1024.4
20220706113200 67 264 4.0 11.0 0.00 0.00 0.00 50 1024.5
20220706112603 66 321 4.0 12.0 0.00 0.00 0.00 54 1024.5
20220706112200 66 314 6.0 12.0 0.00 0.00 0.00 53 1024.7
20220706111903 67 309 3.0 11.0 0.00 0.00 0.00 53 1024.5
20220706111200 67 263 1.0 8.0 0.00 0.00 0.00 55 1024.5
20220706110503 66 264 3.0 8.0 0.00 0.00 0.00 54 1024.5
20220706110200 66 309 3.0 9.0 0.00 0.00 0.00 53 1024.5
20220706105803 66 303 1.0 11.0 0.00 0.00 0.00 54 1024.5
20220706105200 66 314 6.0 19.0 0.00 0.00 0.00 54 1024.5
20220706105103 66 311 4.0 19.0 0.00 0.00 0.00 54 1024.5
20220706104403 67 306 8.0 19.0 0.00 0.00 0.00 50 1024.5
20220706104200 67 313 3.0 9.0 0.00 0.00 0.00 55 1024.5
20220706103703 66 294 3.0 8.0 0.00 0.00 0.00 55 1024.5
20220706103200 66 294 3.0 8.0 0.00 0.00 0.00 55 1024.5
20220706103003 65 305 1.0 8.0 0.00 0.00 0.00 55 1024.5
20220706102303 65 304 3.0 9.0 0.00 0.00 0.00 55 1024.5
20220706102200 65 304 3.0 9.0 0.00 0.00 0.00 54 1024.5
20220706101603 66 307 1.0 9.0 0.00 0.00 0.00 56 1024.5
20220706101200 65 306 1.0 4.0 0.00 0.00 0.00 57 1024.5
20220706100903 65 0 0.0 8.0 0.00 0.00 0.00 57 1024.5
20220706100200 66 317 6.0 12.0 0.00 0.00 0.00 56 1024.5
20220706095503 67 309 4.0 12.0 0.00 0.00 0.00 55 1024.5
20220706095200 67 311 4.0 9.0 0.00 0.00 0.00 55 1024.4
20220706094803 68 283 1.0 6.0 0.00 0.00 0.00 56 1024.5
20220706094200 66 0 0.0 12.0 0.00 0.00 0.00 56 1024.5
20220706094103 66 0 0.0 14.0 0.00 0.00 0.00 56 1024.5
20220706093403 66 306 4.0 14.0 0.00 0.00 0.00 54 1024.5
20220706093200 67 319 6.0 14.0 0.00 0.00 0.00 53 1024.5
20220706092703 67 308 3.0 8.0 0.00 0.00 0.00 54 1024.4
20220706092200 66 0 0.0 12.0 0.00 0.00 0.00 55 1024.5
20220706092003 66 314 1.0 12.0 0.00 0.00 0.00 53 1024.5
20220706091200 66 330 1.0 9.0 0.00 0.00 0.00 57 1024.5
20220706090603 66 296 3.0 9.0 0.00 0.00 0.00 57 1024.5
20220706090200 65 302 3.0 9.0 0.00 0.00 0.00 58 1024.5
20220706085903 65 0 0.0 9.0 0.00 0.00 0.00 60 1024.5
20220706085200 65 311 1.0 9.0 0.00 0.00 0.00 61 1024.5
20220706084503 65 330 4.0 12.0 0.00 0.00 0.00 62 1024.5
20220706084200 65 310 1.0 12.0 0.00 0.00 0.00 62 1024.5
20220706083803 65 343 4.0 12.0 0.00 0.00 0.00 62 1024.5
20220706083200 65 354 1.0 6.0 0.00 0.00 0.00 61 1024.5
20220706083103 64 330 1.0 6.0 0.00 0.00 0.00 62 1024.5
20220706082403 64 306 1.0 8.0 0.00 0.00 0.00 62 1024.5
20220706082200 64 358 1.0 8.0 0.00 0.00 0.00 63 1024.5
20220706081703 64 314 3.0 8.0 0.00 0.00 0.00 62 1024.5
20220706081200 64 313 1.0 11.0 0.00 0.00 0.00 62 1024.5
20220706081003 64 315 3.0 11.0 0.00 0.00 0.00 62 1024.5
20220706080303 63 330 4.0 9.0 0.00 0.00 0.00 65 1024.5
20220706080200 63 326 3.0 9.0 0.00 0.00 0.00 66 1024.5
20220706075603 62 334 1.0 9.0 0.00 0.00 0.00 66 1024.5
20220706075200 62 306 3.0 9.0 0.00 0.00 0.00 66 1024.5
20220706074903 62 310 4.0 9.0 0.00 0.00 0.00 66 1024.5
20220706074200 62 310 3.0 9.0 0.00 0.00 0.00 67 1024.5
20220706073503 61 332 4.0 9.0 0.00 0.00 0.00 67 1024.5
20220706073200 61 310 3.0 8.0 0.00 0.00 0.00 69 1024.5
20220706072803 61 331 3.0 9.0 0.00 0.00 0.00 68 1024.5
20220706072200 61 312 4.0 9.0 0.00 0.00 0.00 67 1024.5
20220706071403 60 321 1.0 11.0 0.00 0.00 0.00 69 1024.4
20220706071200 60 314 4.0 11.0 0.00 0.00 0.00 68 1024.5
20220706070703 60 325 3.0 9.0 0.00 0.00 0.00 70 1024.4
20220706070200 60 318 4.0 9.0 0.00 0.00 0.00 68 1024.4
20220706070003 60 312 4.0 9.0 0.00 0.00 0.00 68 1024.4
20220706065303 60 309 3.0 9.0 0.00 0.00 0.00 67 1024.4
20220706065200 60 312 3.0 9.0 0.00 0.00 0.00 69 1024.4
20220706064603 61 315 4.0 9.0 0.00 0.00 0.00 67 1024.4
20220706064200 61 323 4.0 8.0 0.00 0.00 0.00 67 1024.5
20220706063903 61 329 3.0 8.0 0.00 0.00 0.00 67 1024.4
20220706063200 60 318 3.0 8.0 0.00 0.00 0.00 69 1024.4
20220706062503 60 329 1.0 6.0 0.00 0.00 0.00 70 1024.4
20220706062200 60 311 3.0 8.0 0.00 0.00 0.00 70 1024.4
20220706061803 59 302 1.0 9.0 0.00 0.00 0.00 70 1024.4
20220706061200 59 312 4.0 9.0 0.00 0.00 0.00 70 1024.4
20220706060403 59 318 4.0 9.0 0.00 0.00 0.00 71 1024.3
20220706060200 59 322 4.0 9.0 0.00 0.00 0.00 71 1024.3
20220706055703 59 320 3.0 8.0 0.00 0.00 0.00 71 1024.3
20220706055200 59 314 3.0 8.0 0.00 0.00 0.00 73 1024.3
20220706055003 59 316 1.0 6.0 0.00 0.00 0.00 74 1024.3
20220706054303 59 311 1.0 4.0 0.00 0.00 0.00 74 1024.2
20220706054200 59 308 1.0 4.0 0.00 0.00 0.00 75 1024.2
20220706053603 58 0 0.0 4.0 0.00 0.00 0.00 76 1024.2
20220706053200 58 302 1.0 4.0 0.00 0.00 0.00 76 1024.2
20220706052903 58 0 0.0 4.0 0.00 0.00 0.00 76 1024.2
20220706052200 58 0 0.0 3.0 0.00 0.00 0.00 77 1024.0
20220706051503 57 307 1.0 4.0 0.00 0.00 0.00 77 1023.9
20220706051200 57 305 1.0 4.0 0.00 0.00 0.00 78 1023.9
20220706050803 57 305 1.0 3.0 0.00 0.00 0.00 78 1023.9
20220706050200 57 302 1.0 3.0 0.00 0.00 0.00 78 1023.7
20220706050103 57 302 1.0 3.0 0.00 0.00 0.00 78 1023.7
20220706045403 57 301 1.0 3.0 0.00 0.00 0.00 78 1023.7
20220706045200 57 301 1.0 3.0 0.00 0.00 0.00 77 1023.7
20220706044703 57 299 1.0 3.0 0.00 0.00 0.00 77 1023.7
20220706044200 57 0 0.0 3.0 0.00 0.00 0.00 77 1023.6
20220706044003 57 0 0.0 3.0 0.00 0.00 0.00 77 1023.7